[[{"header":{"parameterUnit":"m.s-1","parameterCategory":2,"la1":30.2991,"la2":30.254,"lo1":-89.0895,"lo2":-89.0444,"dy":0.0017,"dx":0.0017,"nx":28,"ny":28,"refTime":"2024-10-07T03:00:00:Z","depth":"0","parameterNumber":2,"parameterNumberName":"U-component_of_CURRENTS"},"data":[0,0,0,0,0,0,0,0,0,0,0,0,0,0,0,0,0,0,0,0,0,0,0,0,0,0,0,0,0,0,0,0,0,0,0,0,0,0,0,0,0,0,0,0,0,0,0,0,0,0,0,0,0,0,0,0,0,0,-0.2169,-0.2169,0,-0.2169,-0.2168,-0.2168,-0.2129,-0.2128,-0.2127,-0.2126,-0.2089,-0.2088,-0.2088,0,0,0,0,0,0,0,0,0,0,0,0,0,-0.2134,-0.2135,-0.2169,-0.2169,-0.2169,-0.2169,-0.2168,-0.2168,-0.2129,-0.2128,-0.2127,-0.2126,-0.2089,-0.2088,-0.2088,0,0,0,0,0,0,0,0,0,0,0,0,0,-0.2141,-0.2135,-0.2169,-0.2151,-0.2149,-0.2169,-0.2168,-0.2168,-0.2129,-0.2128,-0.2127,-0.2126,-0.2089,-0.2088,-0.2088,-0.2112,0,0,-0.2087,-0.2087,0,0,0,0,0,0,0,0,-0.2141,-0.2142,-0.2153,-0.2152,-0.215,-0.2149,-0.2142,-0.2148,-0.213,-0.2135,-0.2126,-0.2125,-0.2108,-0.2106,-0.2106,-0.211,-0.2109,-0.2087,-0.2087,-0.2087,-0.2087,0,0,0,0,0,0,0,-0.214,-0.2142,-0.2167,-0.2154,-0.2152,-0.2143,-0.2142,-0.2143,-0.2126,-0.2134,-0.2132,-0.2135,-0.2106,-0.2107,-0.2105,-0.2108,-0.2087,-0.2087,-0.2087,-0.2087,-0.2122,-0.2123,0,0,0,0,0,0,-0.2146,-0.2142,-0.2167,-0.2167,-0.2144,-0.2144,-0.2144,-0.2149,-0.2127,-0.2123,-0.2137,-0.2134,-0.2108,-0.2105,-0.2104,-0.212,-0.2087,-0.2087,-0.2086,-0.2121,-0.2122,-0.2123,0,0,0,0,0,0,-0.2145,-0.2148,-0.2167,-0.2155,-0.2157,-0.2147,-0.2153,-0.215,-0.2146,-0.2129,-0.2124,-0.2135,-0.2107,-0.2104,-0.2105,-0.2118,-0.2086,-0.2086,-0.2119,-0.2121,-0.2123,-0.2159,0,0,0,0,0,0,-0.2144,-0.2148,-0.2151,-0.2156,-0.2158,-0.2181,-0.2155,-0.2151,-0.2151,-0.2147,-0.2127,-0.2122,-0.2106,-0.2106,-0.2105,-0.2117,-0.2086,-0.2118,-0.212,-0.2122,-0.2156,-0.2162,-0.2166,0,0,0,0,0,-0.2143,-0.2157,-0.2151,-0.2154,-0.2163,-0.2182,-0.2182,-0.2168,-0.2153,-0.2158,-0.2143,-0.2123,-0.2118,-0.2106,-0.2105,-0.2118,-0.2117,-0.2119,-0.2122,-0.2154,-0.2161,-0.2166,0,0,0,0,0,0,-0.2143,-0.2154,-0.2148,-0.2163,-0.2172,-0.2176,-0.2179,-0.2173,-0.2167,-0.2158,-0.2136,-0.2132,-0.2137,-0.2128,-0.2116,-0.2136,-0.2115,-0.2117,-0.214,-0.2146,-0.2151,-0.2154,-0.2086,0,0,0,0,0,-0.2146,-0.2154,-0.2167,-0.2177,-0.2184,-0.2182,-0.2186,-0.2181,-0.2179,-0.2174,-0.2161,-0.2151,-0.215,-0.2147,-0.2144,-0.2157,-0.2143,-0.2166,-0.2171,-0.2175,-0.2178,-0.2175,-0.218,-0.2131,-0.2131,-0.2131,0,0,-0.2147,-0.2155,-0.2158,-0.2177,-0.2179,-0.2199,-0.218,-0.2192,-0.2204,-0.2172,-0.2178,-0.2167,-0.2158,-0.2168,-0.2171,-0.216,-0.2181,-0.2178,-0.2182,-0.2182,-0.2178,-0.2183,-0.2187,-0.2133,-0.2133,-0.2133,0,0,-0.216,-0.2164,-0.2177,-0.2191,-0.2204,-0.2209,-0.2215,-0.2223,-0.222,-0.2231,-0.2211,-0.2209,-0.2208,-0.2203,-0.2202,-0.2236,-0.2207,-0.2236,-0.2262,-0.226,-0.2263,-0.2266,-0.2249,-0.225,-0.2238,-0.2239,-0.2239,0,-0.216,-0.2178,-0.2184,-0.2205,-0.2217,-0.2217,-0.2238,-0.2246,-0.2251,-0.2254,-0.2237,-0.2239,-0.2226,-0.2242,-0.2249,-0.2246,-0.2234,-0.2237,-0.2265,-0.2268,-0.227,-0.2252,-0.2252,-0.2241,-0.224,-0.224,-0.224,0,-0.2184,-0.2201,-0.2213,-0.2237,-0.2255,-0.2273,-0.229,-0.2302,-0.2296,-0.2298,-0.2308,-0.2293,-0.2291,-0.2292,-0.2278,-0.2296,-0.2278,-0.227,-0.2246,-0.2277,-0.2256,-0.2256,-0.2244,-0.2243,-0.2242,-0.2242,0,0,-0.2169,-0.2219,-0.2219,-0.2235,-0.2271,-0.2285,-0.2319,-0.2342,-0.2354,-0.2357,-0.2367,-0.2368,-0.2352,-0.2349,-0.2335,-0.2333,-0.2334,-0.231,-0.2309,-0.2287,-0.2318,-0.2268,-0.2262,-0.233,-0.233,-0.233,-0.2294,0,-0.218,-0.222,-0.2247,-0.2282,-0.2304,-0.2327,-0.2358,-0.238,-0.2387,-0.2398,-0.2393,-0.2394,-0.2378,-0.2369,-0.237,-0.2344,-0.2337,-0.2344,-0.2297,-0.2295,-0.2242,-0.2262,-0.2171,-0.2127,-0.2294,-0.2294,-0.2294,0,-0.2184,-0.2212,-0.2249,-0.23,-0.2312,-0.2335,-0.2372,-0.24,-0.2427,-0.2433,-0.2441,-0.2431,-0.2433,-0.2408,-0.2388,-0.2392,-0.2359,-0.2337,-0.2335,-0.2276,-0.2246,-0.2126,-0.2121,-0.2101,-0.2293,-0.2293,-0.2293,0,-0.2148,-0.2208,-0.2233,-0.2251,-0.2313,-0.2331,-0.2361,-0.24,-0.2423,-0.2446,-0.2458,-0.2461,-0.2454,-0.243,-0.2388,-0.2386,-0.2357,-0.2345,-0.227,-0.2266,-0.2172,-0.2159,-0.2136,-0.2328,-0.2328,-0.2329,-0.2329,0,-0.2136,-0.2152,-0.2216,-0.2227,-0.2257,-0.2309,-0.2339,-0.2371,-0.2417,-0.2433,-0.2463,-0.247,-0.2459,-0.2442,-0.24,-0.2335,-0.2365,-0.2275,-0.2256,-0.2182,-0.217,-0.2136,-0.2138,-0.2327,-0.2327,-0.2328,-0.2328,0,-0.2077,-0.2124,-0.2153,-0.2218,-0.2237,-0.2252,-0.2322,-0.2339,-0.24,-0.2422,-0.2429,-0.2475,-0.2449,-0.2431,-0.2385,-0.2342,-0.2238,-0.2255,-0.2162,-0.2133,-0.2036,-0.2042,-0.1975,-0.1924,-0.2161,-0.2159,-0.2158,0,-0.2046,-0.2055,-0.2122,-0.2131,-0.2155,-0.2195,-0.2216,-0.2303,-0.2325,-0.2411,-0.2408,-0.2426,-0.2399,-0.2339,-0.2275,-0.2196,-0.2173,-0.2066,-0.2045,-0.2019,-0.2013,-0.2009,-0.1971,-0.1932,-0.1929,-0.1926,-0.1924,0,-0.1972,-0.1997,-0.2016,-0.2043,-0.2065,-0.21,-0.2142,-0.2167,-0.2257,-0.2292,-0.2317,-0.2312,-0.2287,-0.2179,-0.2108,-0.2047,-0.2004,-0.2013,-0.201,-0.1853,-0.1823,-0.1767,-0.1967,-0.1903,-0.1905,-0.1907,-0.1908,-0.1909,-0.1895,-0.189,-0.1914,-0.1926,-0.1954,-0.1968,-0.1956,-0.2017,-0.2045,-0.2064,-0.2149,-0.212,-0.2079,-0.197,-0.1922,-0.1813,-0.1849,-0.1742,-0.1757,-0.176,-0.1696,-0.1847,-0.1751,-0.1753,-0.1754,-0.1755,-0.1755,0,-0.1782,-0.1784,-0.1792,-0.1802,-0.1779,-0.184,-0.1866,-0.1832,-0.1814,-0.1884,-0.1883,-0.1871,-0.1763,-0.1745,-0.1655,-0.1579,-0.1542,-0.1539,-0.1517,-0.1493,-0.1637,-0.1614,-0.1454,-0.1454,-0.1454,-0.1454,-0.1454,-0.1454,-0.1722,-0.168,-0.1685,-0.1609,-0.1612,-0.1542,-0.1525,-0.1504,-0.1526,-0.1518,-0.1556,-0.1624,-0.1601,-0.1629,-0.1515,-0.1446,-0.141,-0.1354,-0.1388,-0.1503,-0.1524,-0.1544,-0.1523,-0.1348,-0.1347,-0.1188,-0.1187,-0.1186]},{"header":{"parameterUnit":"m.s-1","parameterCategory":2,"la1":30.2991,"la2":30.254,"lo1":-89.0895,"lo2":-89.0444,"dy":0.0017,"dx":0.0017,"nx":28,"ny":28,"refTime":"2024-10-07T03:00:00:Z","depth":"0","parameterNumber":3,"parameterNumberName":"V-component_of_CURRENTS"},"data":[0,0,0,0,0,0,0,0,0,0,0,0,0,0,0,0,0,0,0,0,0,0,0,0,0,0,0,0,0,0,0,0,0,0,0,0,0,0,0,0,0,0,0,0,0,0,0,0,0,0,0,0,0,0,0,0,0,0,-0.0426,-0.0426,0,-0.0363,-0.0362,-0.0361,-0.0321,-0.0321,-0.0321,-0.032,-0.0239,-0.0238,-0.0236,0,0,0,0,0,0,0,0,0,0,0,0,0,-0.0475,-0.0474,-0.0426,-0.0426,-0.0425,-0.0363,-0.0362,-0.0361,-0.0321,-0.0321,-0.0321,-0.032,-0.024,-0.0238,-0.0235,0,0,0,0,0,0,0,0,0,0,0,0,0,-0.0437,-0.0474,-0.0427,-0.0397,-0.0394,-0.0363,-0.0362,-0.0361,-0.0321,-0.0321,-0.0321,-0.032,-0.0241,-0.0238,-0.0235,-0.0224,0,0,-0.0226,-0.0225,0,0,0,0,0,0,0,0,-0.0439,-0.0435,-0.0403,-0.0399,-0.0396,-0.035,-0.0349,-0.0314,-0.0321,-0.0349,-0.032,-0.032,-0.0275,-0.0269,-0.0258,-0.022,-0.0217,-0.0226,-0.0224,-0.0223,-0.0222,0,0,0,0,0,0,0,-0.0442,-0.0437,-0.0401,-0.0402,-0.0398,-0.0374,-0.0369,-0.0342,-0.0314,-0.0346,-0.0343,-0.0337,-0.0273,-0.0261,-0.0256,-0.0215,-0.0226,-0.0223,-0.0222,-0.022,-0.0157,-0.0157,0,0,0,0,0,0,-0.0452,-0.044,-0.0403,-0.0399,-0.0417,-0.0374,-0.0368,-0.0365,-0.0315,-0.0307,-0.0337,-0.0335,-0.0266,-0.0259,-0.0253,-0.0234,-0.0223,-0.022,-0.0219,-0.0157,-0.0157,-0.0158,0,0,0,0,0,0,-0.0453,-0.0449,-0.0406,-0.0418,-0.0411,-0.0374,-0.037,-0.0364,-0.0352,-0.0308,-0.03,-0.0332,-0.0266,-0.0257,-0.0228,-0.0231,-0.0219,-0.0216,-0.0157,-0.0157,-0.0157,-0.0199,0,0,0,0,0,0,-0.0455,-0.045,-0.0453,-0.0419,-0.041,-0.0392,-0.037,-0.0363,-0.0348,-0.0345,-0.0301,-0.0293,-0.0265,-0.0232,-0.0225,-0.0227,-0.0214,-0.0157,-0.0157,-0.0157,-0.0197,-0.02,-0.0203,0,0,0,0,0,-0.0457,-0.0464,-0.0454,-0.045,-0.0415,-0.0392,-0.0386,-0.0358,-0.0348,-0.0346,-0.0313,-0.0294,-0.0228,-0.023,-0.0221,-0.0222,-0.0157,-0.0157,-0.0157,-0.0196,-0.02,-0.0203,0,0,0,0,0,0,-0.0484,-0.0459,-0.0448,-0.0446,-0.0423,-0.0386,-0.0382,-0.0363,-0.0335,-0.0333,-0.0292,-0.0282,-0.0259,-0.0235,-0.0238,-0.0205,-0.0191,-0.0189,-0.0223,-0.0226,-0.0229,-0.0241,-0.0212,0,0,0,0,0,-0.0493,-0.0493,-0.0462,-0.0461,-0.0452,-0.0418,-0.0406,-0.0388,-0.0358,-0.0346,-0.0314,-0.0281,-0.0253,-0.0236,-0.0208,-0.0188,-0.016,-0.0184,-0.0187,-0.0189,-0.0193,-0.0151,-0.0151,-0.0158,-0.0158,-0.0158,0,0,-0.0503,-0.049,-0.0489,-0.0467,-0.0448,-0.0441,-0.041,-0.0397,-0.0388,-0.0342,-0.0322,-0.029,-0.025,-0.0228,-0.0215,-0.0207,-0.0172,-0.019,-0.0192,-0.0194,-0.0151,-0.0151,-0.015,-0.0158,-0.0158,-0.0158,0,0,-0.0528,-0.0512,-0.0523,-0.0507,-0.0484,-0.0461,-0.046,-0.0425,-0.0406,-0.0383,-0.0348,-0.0317,-0.0275,-0.0244,-0.0224,-0.0225,-0.019,-0.022,-0.024,-0.0199,-0.0198,-0.0197,-0.0161,-0.0156,-0.0219,-0.0219,-0.0219,0,-0.0542,-0.055,-0.0521,-0.0526,-0.0517,-0.0474,-0.0481,-0.0454,-0.0413,-0.0398,-0.0384,-0.0315,-0.0283,-0.0248,-0.0249,-0.0231,-0.0205,-0.0231,-0.0203,-0.0201,-0.0199,-0.0162,-0.0157,-0.0221,-0.0221,-0.0221,-0.022,0,-0.0574,-0.0578,-0.0582,-0.0575,-0.056,-0.0558,-0.0519,-0.0501,-0.0473,-0.0442,-0.0403,-0.0352,-0.0312,-0.0296,-0.0272,-0.0244,-0.0228,-0.0213,-0.0196,-0.0201,-0.0162,-0.0155,-0.0224,-0.0223,-0.0223,-0.0222,0,0,-0.061,-0.0608,-0.0609,-0.0617,-0.0587,-0.0581,-0.0562,-0.0532,-0.0519,-0.0472,-0.0448,-0.0394,-0.0362,-0.0338,-0.0299,-0.0261,-0.0224,-0.0237,-0.0234,-0.0205,-0.0137,-0.0091,-0.0079,-0.0204,-0.0203,-0.0203,-0.0116,0,-0.0645,-0.0676,-0.0655,-0.0673,-0.0685,-0.0639,-0.0626,-0.059,-0.0547,-0.0511,-0.0448,-0.0411,-0.0379,-0.0358,-0.0317,-0.0245,-0.0209,-0.025,-0.0134,-0.013,-0.0091,-0.007,-0.0044,0.0039,-0.0109,-0.0108,-0.0107,0,-0.0683,-0.07,-0.0732,-0.073,-0.0729,-0.0727,-0.0695,-0.0676,-0.0608,-0.0574,-0.0519,-0.0464,-0.0399,-0.0373,-0.0256,-0.0284,-0.0221,-0.0164,-0.0159,-0.0097,-0.0071,0.0021,0.0057,0.0157,-0.0096,-0.0097,-0.0098,0,-0.0734,-0.075,-0.078,-0.078,-0.0769,-0.0768,-0.0754,-0.0699,-0.0681,-0.061,-0.0583,-0.0496,-0.0446,-0.0358,-0.0235,-0.0248,-0.01,-0.0101,0.0001,0.0004,0.0059,0.0067,0.0204,-0.0025,-0.0025,-0.0025,-0.0025,0,-0.0782,-0.0804,-0.0809,-0.0827,-0.0855,-0.0822,-0.0827,-0.0793,-0.074,-0.0716,-0.0623,-0.0574,-0.044,-0.0334,-0.0239,-0.0086,-0.0099,0.0004,0.0035,0.0046,0.0051,0.0166,0.0194,-0.0022,-0.0022,-0.0023,-0.0024,0,-0.0832,-0.0835,-0.0873,-0.088,-0.0884,-0.0903,-0.0888,-0.0884,-0.0822,-0.0784,-0.0763,-0.0627,-0.0478,-0.0332,-0.0167,-0.0082,0.0119,0.0105,0.011,0.0139,0.0312,0.0336,0.0493,0.0543,0.0221,0.0223,0.0224,0,-0.0861,-0.0888,-0.0923,-0.095,-0.0957,-0.0976,-0.0984,-0.0936,-0.0921,-0.081,-0.0792,-0.0634,-0.0507,-0.0235,-0.0048,0.0145,0.0207,0.0268,0.0248,0.0339,0.0387,0.0399,0.0429,0.0304,0.0306,0.0307,0.0309,0,-0.0914,-0.0926,-0.0958,-0.1019,-0.1045,-0.1069,-0.107,-0.1071,-0.0998,-0.0935,-0.0815,-0.0699,-0.0416,-0.0162,0.0097,0.0208,0.0341,0.0307,0.0406,0.0472,0.0489,0.0546,0.0223,0.0323,0.0322,0.0321,0.032,0.0319,-0.0945,-0.0986,-0.103,-0.1081,-0.1116,-0.1143,-0.1152,-0.1125,-0.1082,-0.0959,-0.0841,-0.0626,-0.0269,0.0115,0.0241,0.0517,0.0473,0.0585,0.0609,0.0614,0.0662,0.0371,0.0501,0.05,0.05,0.05,0.0499,0,-0.098,-0.1024,-0.1086,-0.1144,-0.1187,-0.1186,-0.119,-0.1164,-0.1099,-0.095,-0.0796,-0.0369,-0.0026,0.0286,0.0675,0.0811,0.082,0.0875,0.0895,0.0913,0.0671,0.0674,0.0842,0.0842,0.0842,0.0841,0.0841,0.0841,-0.0999,-0.1065,-0.11,-0.1181,-0.1219,-0.1241,-0.1235,-0.117,-0.1057,-0.0794,-0.0533,-0.0324,0.0144,0.0734,0.1066,0.1088,0.1177,0.1174,0.122,0.1051,0.1025,0.1,0.1012,0.1248,0.1248,0.1452,0.1454,0.1456]}],[{"header":{"parameterUnit":"m.s-1","parameterCategory":2,"la1":30.2991,"la2":30.254,"lo1":-89.0895,"lo2":-89.0444,"dy":0.0017,"dx":0.0017,"nx":28,"ny":28,"refTime":"2024-10-07T03:00:00:Z","depth":"2","parameterNumber":2,"parameterNumberName":"U-component_of_CURRENTS"},"data":[0,0,0,0,0,0,0,0,0,0,0,0,0,0,0,0,0,0,0,0,0,0,0,0,0,0,0,0,0,0,0,0,0,0,0,0,0,0,0,0,0,0,0,0,0,0,0,0,0,0,0,0,0,0,0,0,0,0,-0.1964,-0.1964,0,-0.1967,-0.1967,-0.1967,-0.1937,-0.1936,-0.1936,-0.1935,-0.1906,-0.1905,-0.1905,0,0,0,0,0,0,0,0,0,0,0,0,0,-0.193,-0.1931,-0.1964,-0.1964,-0.1964,-0.1967,-0.1967,-0.1967,-0.1937,-0.1936,-0.1935,-0.1935,-0.1906,-0.1905,-0.1905,0,0,0,0,0,0,0,0,0,0,0,0,0,-0.1938,-0.1931,-0.1964,-0.1951,-0.195,-0.1967,-0.1967,-0.1966,-0.1937,-0.1936,-0.1935,-0.1934,-0.1906,-0.1905,-0.1905,-0.1923,0,0,-0.1904,-0.1904,0,0,0,0,0,0,0,0,-0.1938,-0.1939,-0.1953,-0.1952,-0.1951,-0.1952,-0.1944,-0.1951,-0.1937,-0.194,-0.1935,-0.1934,-0.192,-0.1919,-0.1919,-0.1921,-0.192,-0.1904,-0.1904,-0.1904,-0.1904,0,0,0,0,0,0,0,-0.1937,-0.1939,-0.1963,-0.1953,-0.1952,-0.1945,-0.1945,-0.1945,-0.1933,-0.194,-0.1938,-0.1942,-0.1919,-0.1919,-0.1918,-0.192,-0.1904,-0.1904,-0.1904,-0.1904,-0.1939,-0.194,0,0,0,0,0,0,-0.1942,-0.1939,-0.1963,-0.1963,-0.1944,-0.1946,-0.1946,-0.1951,-0.1934,-0.1931,-0.1943,-0.1941,-0.192,-0.1918,-0.1917,-0.1938,-0.1904,-0.1904,-0.1904,-0.1937,-0.1939,-0.194,0,0,0,0,0,0,-0.1941,-0.1944,-0.1963,-0.1952,-0.1954,-0.1948,-0.1954,-0.1952,-0.1952,-0.1937,-0.1933,-0.1945,-0.192,-0.1917,-0.1921,-0.1936,-0.1904,-0.1903,-0.1936,-0.1938,-0.1939,-0.1978,0,0,0,0,0,0,-0.194,-0.1944,-0.1947,-0.1953,-0.1955,-0.1977,-0.1955,-0.1953,-0.1957,-0.1954,-0.1938,-0.1934,-0.1919,-0.1922,-0.1921,-0.1935,-0.1903,-0.1935,-0.1937,-0.1939,-0.1976,-0.1981,-0.1986,0,0,0,0,0,-0.1939,-0.1952,-0.1948,-0.195,-0.1961,-0.1978,-0.1979,-0.1969,-0.1958,-0.1964,-0.1953,-0.1935,-0.1934,-0.1923,-0.1921,-0.1936,-0.1934,-0.1936,-0.1939,-0.1973,-0.198,-0.1986,0,0,0,0,0,0,-0.1939,-0.195,-0.1946,-0.196,-0.197,-0.1974,-0.1979,-0.1975,-0.1973,-0.1967,-0.1948,-0.1944,-0.1953,-0.1944,-0.1931,-0.1953,-0.1932,-0.1934,-0.1959,-0.1965,-0.197,-0.1971,-0.1903,0,0,0,0,0,-0.1942,-0.195,-0.1962,-0.1972,-0.198,-0.198,-0.1985,-0.1983,-0.1983,-0.198,-0.1971,-0.1964,-0.1964,-0.1963,-0.196,-0.1974,-0.1959,-0.1984,-0.1989,-0.1993,-0.1995,-0.1992,-0.1996,-0.1948,-0.1948,-0.1948,0,0,-0.1944,-0.1951,-0.1955,-0.1972,-0.1976,-0.1996,-0.198,-0.1994,-0.2007,-0.1979,-0.1989,-0.1981,-0.1972,-0.1984,-0.1988,-0.1976,-0.1999,-0.1996,-0.1999,-0.1999,-0.1995,-0.1999,-0.2003,-0.195,-0.1949,-0.1949,0,0,-0.1955,-0.196,-0.1972,-0.1986,-0.2001,-0.2007,-0.2014,-0.2024,-0.2024,-0.2038,-0.2021,-0.2022,-0.2024,-0.202,-0.2018,-0.2052,-0.2026,-0.2055,-0.208,-0.2078,-0.2081,-0.2084,-0.2068,-0.2069,-0.2057,-0.2057,-0.2057,0,-0.1956,-0.1973,-0.1979,-0.2,-0.2012,-0.2015,-0.2036,-0.2045,-0.2054,-0.2058,-0.2046,-0.2052,-0.2041,-0.2057,-0.2066,-0.2063,-0.2052,-0.2056,-0.2083,-0.2086,-0.2088,-0.2071,-0.2072,-0.2059,-0.2059,-0.2059,-0.2059,0,-0.1978,-0.1994,-0.2006,-0.203,-0.2047,-0.2066,-0.2085,-0.2098,-0.2098,-0.2102,-0.2116,-0.2104,-0.2104,-0.2107,-0.2095,-0.2113,-0.2097,-0.2088,-0.2065,-0.2095,-0.2075,-0.2075,-0.2062,-0.2062,-0.2061,-0.206,0,0,-0.1965,-0.2012,-0.2013,-0.2028,-0.2064,-0.2078,-0.2112,-0.2136,-0.215,-0.2158,-0.2171,-0.2175,-0.2163,-0.2161,-0.2149,-0.2148,-0.2152,-0.2128,-0.2127,-0.2106,-0.2137,-0.2085,-0.2079,-0.2149,-0.2149,-0.2149,-0.2115,0,-0.1975,-0.2013,-0.2038,-0.2073,-0.2093,-0.2118,-0.2148,-0.2171,-0.2182,-0.2196,-0.2194,-0.2199,-0.2187,-0.2182,-0.2183,-0.216,-0.2155,-0.2161,-0.2116,-0.2114,-0.2059,-0.2079,-0.1917,-0.1869,-0.2115,-0.2115,-0.2115,0,-0.198,-0.2005,-0.2042,-0.2089,-0.2101,-0.2126,-0.2163,-0.2191,-0.2221,-0.2229,-0.2241,-0.2234,-0.2239,-0.2218,-0.2201,-0.2206,-0.2176,-0.2156,-0.2154,-0.2091,-0.2062,-0.188,-0.186,-0.2114,-0.2114,-0.2114,-0.2114,0,-0.1947,-0.2003,-0.2028,-0.2045,-0.2104,-0.2125,-0.2154,-0.2194,-0.2216,-0.2244,-0.2257,-0.2263,-0.226,-0.2239,-0.2202,-0.22,-0.2174,-0.2163,-0.2088,-0.2083,-0.1928,-0.1909,-0.2146,-0.2146,-0.2146,-0.2147,-0.2147,0,-0.1937,-0.1954,-0.2014,-0.2025,-0.2056,-0.2106,-0.2138,-0.217,-0.2216,-0.2231,-0.2264,-0.2271,-0.2266,-0.2251,-0.2212,-0.215,-0.218,-0.2092,-0.2073,-0.1937,-0.1921,-0.2121,-0.2119,-0.2145,-0.2146,-0.2146,-0.2146,0,-0.1885,-0.1929,-0.1958,-0.202,-0.2039,-0.2056,-0.2124,-0.214,-0.2202,-0.2223,-0.2232,-0.2276,-0.2252,-0.2238,-0.2196,-0.2154,-0.2103,-0.2071,-0.1908,-0.1872,-0.2009,-0.2009,-0.198,-0.1978,-0.1976,-0.1974,-0.1973,0,-0.1858,-0.1868,-0.1932,-0.1941,-0.1965,-0.2006,-0.2027,-0.211,-0.2129,-0.2211,-0.2205,-0.2225,-0.2195,-0.2138,-0.2072,-0.1996,-0.2049,-0.1806,-0.1776,-0.2008,-0.1993,-0.1996,-0.1999,-0.1581,-0.1576,-0.1573,-0.157,0,-0.1792,-0.1817,-0.1835,-0.1862,-0.1884,-0.1916,-0.1955,-0.1976,-0.206,-0.209,-0.2107,-0.2099,-0.2069,-0.1924,-0.1857,-0.1791,-0.1808,-0.1732,-0.2007,-0.1659,-0.1632,-0.1618,-0.1633,-0.1538,-0.1541,-0.1544,-0.1545,-0.1547,-0.1724,-0.172,-0.1743,-0.1754,-0.1782,-0.179,-0.1776,-0.1827,-0.1847,-0.1852,-0.1932,-0.1868,-0.1846,-0.1662,-0.1569,-0.1503,-0.1628,-0.1531,-0.1541,-0.1556,-0.1527,-0.1499,-0.1374,-0.1376,-0.1378,-0.138,-0.1381,0,-0.1622,-0.1624,-0.163,-0.1638,-0.1615,-0.1673,-0.1689,-0.1647,-0.1618,-0.1655,-0.1644,-0.1465,-0.1375,-0.1363,-0.1218,-0.1189,-0.1173,-0.1123,-0.1094,-0.1126,-0.1155,-0.1106,-0.0841,-0.0839,-0.0838,-0.0837,0,0,-0.1567,-0.1527,-0.1529,-0.1455,-0.1458,-0.1387,-0.1366,-0.1328,-0.1321,-0.1253,-0.1222,-0.1312,-0.1334,-0.1094,-0.103,-0.0915,-0.1011,-0.0865,-0.1298,-0.1298,-0.1324,-0.1389,-0.135,0,0,0,0,0]},{"header":{"parameterUnit":"m.s-1","parameterCategory":2,"la1":30.2991,"la2":30.254,"lo1":-89.0895,"lo2":-89.0444,"dy":0.0017,"dx":0.0017,"nx":28,"ny":28,"refTime":"2024-10-07T03:00:00:Z","depth":"2","parameterNumber":3,"parameterNumberName":"V-component_of_CURRENTS"},"data":[0,0,0,0,0,0,0,0,0,0,0,0,0,0,0,0,0,0,0,0,0,0,0,0,0,0,0,0,0,0,0,0,0,0,0,0,0,0,0,0,0,0,0,0,0,0,0,0,0,0,0,0,0,0,0,0,0,0,-0.0293,-0.0293,0,-0.0236,-0.0235,-0.0235,-0.0199,-0.0199,-0.0199,-0.0199,-0.0123,-0.0121,-0.0119,0,0,0,0,0,0,0,0,0,0,0,0,0,-0.0333,-0.0333,-0.0294,-0.0293,-0.0292,-0.0236,-0.0235,-0.0234,-0.0199,-0.0199,-0.0199,-0.0199,-0.0123,-0.0121,-0.0119,0,0,0,0,0,0,0,0,0,0,0,0,0,-0.03,-0.0333,-0.0294,-0.0268,-0.0265,-0.0236,-0.0235,-0.0234,-0.0199,-0.0199,-0.0199,-0.0198,-0.0124,-0.0121,-0.0119,-0.0106,0,0,-0.011,-0.0109,0,0,0,0,0,0,0,0,-0.0302,-0.0298,-0.0272,-0.027,-0.0266,-0.0225,-0.0221,-0.0191,-0.0199,-0.0224,-0.0199,-0.0198,-0.0155,-0.015,-0.014,-0.0103,-0.0099,-0.011,-0.0108,-0.0107,-0.0106,0,0,0,0,0,0,0,-0.0304,-0.03,-0.0271,-0.0272,-0.0268,-0.0245,-0.0241,-0.0215,-0.0191,-0.0222,-0.0219,-0.0213,-0.0154,-0.0143,-0.0138,-0.0098,-0.011,-0.0107,-0.0106,-0.0105,-0.0044,-0.0045,0,0,0,0,0,0,-0.0314,-0.0303,-0.0272,-0.0269,-0.0284,-0.0245,-0.024,-0.0238,-0.0192,-0.0185,-0.0213,-0.0212,-0.0147,-0.0141,-0.0135,-0.0117,-0.0107,-0.0104,-0.0103,-0.0044,-0.0045,-0.0045,0,0,0,0,0,0,-0.0315,-0.0312,-0.0275,-0.0284,-0.0278,-0.0245,-0.0243,-0.0237,-0.0228,-0.0186,-0.0178,-0.021,-0.0147,-0.0139,-0.0112,-0.0114,-0.0103,-0.01,-0.0044,-0.0044,-0.0045,-0.0082,0,0,0,0,0,0,-0.0316,-0.0313,-0.0317,-0.0285,-0.0278,-0.0262,-0.0243,-0.0236,-0.0224,-0.0221,-0.018,-0.0173,-0.0146,-0.0116,-0.0109,-0.011,-0.0098,-0.0044,-0.0044,-0.0045,-0.0081,-0.0083,-0.0086,0,0,0,0,0,-0.0318,-0.0325,-0.0317,-0.0314,-0.0284,-0.0263,-0.0257,-0.0232,-0.0225,-0.0223,-0.0193,-0.0174,-0.0112,-0.0114,-0.0105,-0.0106,-0.0044,-0.0044,-0.0045,-0.008,-0.0083,-0.0086,0,0,0,0,0,0,-0.0343,-0.0321,-0.0312,-0.0312,-0.0291,-0.0257,-0.0254,-0.0237,-0.0212,-0.0211,-0.0172,-0.0163,-0.0141,-0.0119,-0.0121,-0.0089,-0.0076,-0.0075,-0.0106,-0.0109,-0.0111,-0.0122,-0.0096,0,0,0,0,0,-0.0352,-0.0353,-0.0325,-0.0325,-0.0318,-0.0288,-0.0277,-0.0261,-0.0234,-0.0223,-0.0193,-0.0162,-0.0135,-0.0119,-0.0093,-0.0073,-0.0047,-0.0069,-0.0072,-0.0074,-0.0077,-0.0036,-0.0035,-0.0045,-0.0045,-0.0045,0,0,-0.0361,-0.035,-0.035,-0.0331,-0.0314,-0.0308,-0.0281,-0.027,-0.0261,-0.0219,-0.02,-0.0171,-0.0133,-0.0111,-0.0099,-0.0092,-0.0057,-0.0074,-0.0076,-0.0078,-0.0036,-0.0035,-0.0034,-0.0045,-0.0045,-0.0045,0,0,-0.0384,-0.0372,-0.0382,-0.0368,-0.0348,-0.0327,-0.0326,-0.0295,-0.0278,-0.0257,-0.0225,-0.0195,-0.0157,-0.0125,-0.0106,-0.0106,-0.0074,-0.0103,-0.012,-0.008,-0.0079,-0.0077,-0.0045,-0.0041,-0.0101,-0.0102,-0.0102,0,-0.0398,-0.0405,-0.038,-0.0385,-0.0377,-0.0339,-0.0345,-0.0321,-0.0283,-0.0269,-0.0258,-0.0193,-0.0162,-0.0127,-0.0128,-0.0112,-0.0088,-0.0112,-0.0083,-0.0081,-0.0079,-0.0046,-0.0041,-0.0103,-0.0103,-0.0103,-0.0103,0,-0.0426,-0.0431,-0.0435,-0.0429,-0.0415,-0.0414,-0.0378,-0.0362,-0.0338,-0.0309,-0.0272,-0.0224,-0.0186,-0.0172,-0.015,-0.0121,-0.0109,-0.0094,-0.0077,-0.0081,-0.0046,-0.0039,-0.0106,-0.0105,-0.0105,-0.0104,0,0,-0.0461,-0.0458,-0.046,-0.0467,-0.044,-0.0434,-0.0416,-0.0387,-0.0375,-0.0332,-0.0309,-0.0258,-0.0231,-0.0207,-0.0171,-0.0134,-0.0099,-0.0114,-0.0111,-0.0085,-0.0016,0.0022,0.0033,-0.008,-0.0079,-0.0078,0.0001,0,-0.0493,-0.052,-0.0501,-0.0517,-0.0527,-0.0485,-0.0472,-0.0438,-0.0399,-0.0366,-0.0306,-0.0273,-0.0243,-0.0226,-0.0185,-0.0119,-0.0084,-0.0122,-0.0015,-0.0012,0.0021,0.0041,0.0026,0.0098,0.0007,0.0008,0.0009,0,-0.0528,-0.0543,-0.0571,-0.0568,-0.0567,-0.0565,-0.0535,-0.0517,-0.0453,-0.0422,-0.0371,-0.0321,-0.0259,-0.0236,-0.0126,-0.0153,-0.0094,-0.0042,-0.0037,0.0016,0.0039,0.0088,0.0113,0.0021,0.002,0.0019,0.0018,0,-0.0576,-0.0589,-0.0617,-0.0616,-0.0604,-0.0604,-0.0591,-0.0539,-0.0522,-0.0456,-0.0432,-0.035,-0.0306,-0.022,-0.0108,-0.0119,0.0019,0.002,0.011,0.0113,0.0131,0.0134,0.0093,0.0093,0.0093,0.0093,0.0093,0,-0.062,-0.064,-0.0645,-0.0661,-0.0688,-0.0655,-0.0662,-0.063,-0.0581,-0.0559,-0.0471,-0.0426,-0.03,-0.0201,-0.0111,0.0029,0.002,0.0113,0.0141,0.0118,0.0119,0.0075,0.0071,0.0096,0.0095,0.0094,0.0094,0,-0.0668,-0.067,-0.0705,-0.0711,-0.0715,-0.0734,-0.0722,-0.0718,-0.0661,-0.0628,-0.0609,-0.0481,-0.0343,-0.0205,-0.005,0.003,0.0156,0.0204,0.0167,0.019,0.0218,0.0212,0.0305,0.0307,0.0309,0.031,0.0312,0,-0.0696,-0.0721,-0.0754,-0.078,-0.0788,-0.0807,-0.0816,-0.0771,-0.0757,-0.0656,-0.0639,-0.0495,-0.0377,-0.0123,0.0048,0.0228,0.0216,0.0308,0.0287,0.0225,0.0243,0.0234,0.0225,0.0292,0.0293,0.0294,0.0294,0,-0.0747,-0.0759,-0.079,-0.0849,-0.0875,-0.0898,-0.0901,-0.0901,-0.0834,-0.0776,-0.0666,-0.0559,-0.0302,-0.0084,0.0155,0.0252,0.0279,0.0331,0.0291,0.0241,0.0219,0.0234,0.0225,0.0302,0.0301,0.03,0.03,0.03,-0.078,-0.0819,-0.0861,-0.0911,-0.0946,-0.0971,-0.098,-0.0955,-0.0915,-0.0801,-0.0694,-0.0499,-0.0294,0.0066,0.0224,0.037,0.0363,0.0392,0.0386,0.038,0.0366,0.0349,0.0451,0.0452,0.0452,0.0452,0.0452,0,-0.0817,-0.0858,-0.0917,-0.0973,-0.1014,-0.1015,-0.1018,-0.099,-0.0931,-0.0797,-0.0656,-0.0399,-0.0147,0.0062,0.0305,0.0442,0.0414,0.0455,0.039,0.0383,0.0377,0.0359,0.0445,0.0445,0.0445,0.0445,0,0,-0.0836,-0.0899,-0.0931,-0.1009,-0.1047,-0.107,-0.1065,-0.0997,-0.0891,-0.0737,-0.0579,-0.0374,-0.012,0.0045,0.0219,0.034,0.032,0.0347,0.0341,0.0239,0.023,0.0336,0.03,0,0,0,0,0]}],[{"header":{"parameterUnit":"m.s-1","parameterCategory":2,"la1":30.2991,"la2":30.254,"lo1":-89.0895,"lo2":-89.0444,"dy":0.0017,"dx":0.0017,"nx":28,"ny":28,"refTime":"2024-10-07T03:00:00:Z","depth":"4","parameterNumber":2,"parameterNumberName":"U-component_of_CURRENTS"},"data":[0,0,0,0,0,0,0,0,0,0,0,0,0,0,0,0,0,0,0,0,0,0,0,0,0,0,0,0,0,0,0,0,0,0,0,0,0,0,0,0,0,0,0,0,0,0,0,0,0,0,0,0,0,0,0,0,0,0,-0.139,-0.1391,0,-0.143,-0.143,-0.1431,-0.1453,-0.1453,-0.1453,-0.1454,-0.1483,-0.1484,-0.1484,0,0,0,0,0,0,0,0,0,0,0,0,0,-0.1331,-0.1332,-0.139,-0.1391,-0.1391,-0.143,-0.143,-0.1431,-0.1453,-0.1453,-0.1453,-0.1454,-0.1483,-0.1483,-0.1484,0,0,0,0,0,0,0,0,0,0,0,0,0,-0.1361,-0.1332,-0.139,-0.1408,-0.141,-0.143,-0.143,-0.1431,-0.1453,-0.1453,-0.1453,-0.1454,-0.1482,-0.1483,-0.1484,-0.1484,0,0,-0.1487,-0.1487,0,0,0,0,0,0,0,0,-0.1359,-0.1363,-0.1405,-0.1407,-0.1409,-0.1438,-0.142,-0.1449,-0.1453,-0.1435,-0.1454,-0.1454,-0.1468,-0.147,-0.1475,-0.1485,-0.1487,-0.1487,-0.1488,-0.1488,-0.1488,0,0,0,0,0,0,0,-0.1357,-0.1362,-0.1405,-0.1405,-0.1408,-0.1414,-0.1418,-0.1426,-0.1448,-0.1437,-0.1439,-0.1445,-0.1469,-0.1474,-0.1476,-0.1487,-0.1487,-0.1488,-0.1488,-0.1489,-0.1559,-0.156,0,0,0,0,0,0,-0.1355,-0.136,-0.1403,-0.1406,-0.1386,-0.1414,-0.1419,-0.1427,-0.1448,-0.1452,-0.1445,-0.1446,-0.1472,-0.1475,-0.1477,-0.1532,-0.1488,-0.1489,-0.1489,-0.1557,-0.1559,-0.156,0,0,0,0,0,0,-0.1354,-0.1359,-0.1402,-0.1384,-0.1391,-0.1415,-0.1424,-0.1428,-0.1456,-0.1455,-0.1458,-0.1471,-0.1473,-0.1476,-0.1506,-0.1531,-0.1489,-0.149,-0.1556,-0.1558,-0.156,-0.1607,0,0,0,0,0,0,-0.1352,-0.1358,-0.1373,-0.1384,-0.1392,-0.1429,-0.1424,-0.1429,-0.1458,-0.1461,-0.1478,-0.148,-0.1473,-0.1505,-0.1507,-0.1531,-0.1491,-0.1554,-0.1557,-0.1559,-0.1604,-0.161,-0.1616,0,0,0,0,0,-0.1349,-0.1366,-0.1373,-0.1379,-0.1408,-0.143,-0.1435,-0.1451,-0.146,-0.1477,-0.1491,-0.148,-0.1522,-0.1507,-0.1509,-0.1534,-0.1553,-0.1556,-0.1559,-0.1601,-0.1609,-0.1616,0,0,0,0,0,0,-0.1351,-0.1371,-0.1378,-0.1402,-0.1422,-0.1435,-0.1455,-0.1466,-0.1491,-0.1499,-0.1497,-0.15,-0.1535,-0.1531,-0.1514,-0.1562,-0.1536,-0.1539,-0.1567,-0.1575,-0.1581,-0.1576,-0.1492,0,0,0,0,0,-0.1357,-0.1375,-0.1394,-0.1415,-0.1427,-0.1446,-0.1461,-0.1474,-0.1493,-0.1505,-0.1518,-0.1532,-0.1545,-0.1558,-0.1567,-0.1595,-0.1576,-0.1613,-0.1619,-0.1624,-0.1623,-0.1621,-0.1626,-0.157,-0.157,-0.157,0,0,-0.1364,-0.1377,-0.1389,-0.1417,-0.1434,-0.1459,-0.1457,-0.1488,-0.1514,-0.1503,-0.1549,-0.1555,-0.1557,-0.1588,-0.1603,-0.159,-0.1631,-0.1628,-0.1632,-0.1628,-0.1624,-0.1629,-0.1634,-0.1572,-0.1572,-0.1571,0,0,-0.138,-0.1401,-0.1419,-0.144,-0.1472,-0.1484,-0.1499,-0.1527,-0.1548,-0.1586,-0.1585,-0.1607,-0.1634,-0.1637,-0.1641,-0.1687,-0.1662,-0.1698,-0.1726,-0.1725,-0.1729,-0.1732,-0.1713,-0.1714,-0.1702,-0.1702,-0.1702,0,-0.139,-0.1413,-0.143,-0.1454,-0.1476,-0.1498,-0.1527,-0.155,-0.1587,-0.1605,-0.1609,-0.165,-0.1654,-0.168,-0.1698,-0.17,-0.169,-0.1697,-0.1731,-0.1734,-0.1737,-0.1716,-0.1717,-0.1705,-0.1704,-0.1704,-0.1704,0,-0.141,-0.1441,-0.1457,-0.1493,-0.152,-0.155,-0.1582,-0.1615,-0.1643,-0.1659,-0.1702,-0.1709,-0.1728,-0.1739,-0.1733,-0.1761,-0.1744,-0.1737,-0.1709,-0.1745,-0.1721,-0.1721,-0.1708,-0.1707,-0.1707,-0.1706,0,0,-0.1398,-0.146,-0.1468,-0.1493,-0.1545,-0.1565,-0.1616,-0.1657,-0.1686,-0.1725,-0.1756,-0.1785,-0.1787,-0.1792,-0.1791,-0.1795,-0.1805,-0.178,-0.1779,-0.1754,-0.1792,-0.1681,-0.167,-0.1807,-0.1808,-0.1808,-0.1766,0,-0.1411,-0.1458,-0.149,-0.1543,-0.157,-0.1613,-0.1655,-0.1697,-0.173,-0.1765,-0.1782,-0.181,-0.1808,-0.182,-0.1826,-0.181,-0.1808,-0.1816,-0.1766,-0.1764,-0.1656,-0.1667,-0.1809,-0.1766,-0.1765,-0.1765,-0.1765,0,-0.1412,-0.1446,-0.15,-0.1565,-0.1582,-0.1622,-0.1685,-0.1725,-0.1776,-0.1802,-0.1833,-0.1842,-0.1861,-0.1851,-0.1843,-0.1851,-0.1826,-0.181,-0.1808,-0.1685,-0.1653,-0.1723,-0.1765,-0.1765,-0.1765,-0.1765,-0.1765,0,-0.1375,-0.1449,-0.1493,-0.1517,-0.1595,-0.1634,-0.1678,-0.1738,-0.177,-0.1823,-0.1845,-0.1869,-0.188,-0.1866,-0.184,-0.1844,-0.1816,-0.1812,-0.1687,-0.1678,-0.177,-0.1767,-0.1798,-0.1798,-0.1798,-0.1798,-0.1798,0,-0.1357,-0.1394,-0.1485,-0.1506,-0.156,-0.1622,-0.1679,-0.1724,-0.1785,-0.1805,-0.1859,-0.1864,-0.1887,-0.1874,-0.1845,-0.1757,-0.1817,-0.1682,-0.1659,-0.1791,-0.1791,-0.1769,-0.1767,-0.1796,-0.1797,-0.1797,-0.1797,0,-0.13,-0.1364,-0.1417,-0.1511,-0.1543,-0.158,-0.1675,-0.1699,-0.1776,-0.1802,-0.1819,-0.1865,-0.1839,-0.184,-0.1807,-0.1745,-0.1683,-0.1638,-0.1771,-0.1757,-0.1544,-0.1545,-0.1483,-0.1478,-0.1475,-0.1472,-0.1469,0,-0.127,-0.1294,-0.1403,-0.1431,-0.1478,-0.1547,-0.1582,-0.1679,-0.1696,-0.1777,-0.1765,-0.1787,-0.1795,-0.1654,-0.1677,-0.1603,-0.1586,-0.1545,-0.155,-0.1528,-0.1512,-0.1518,-0.1523,-0.1463,-0.1462,-0.1461,-0.1461,0,-0.1205,-0.1259,-0.1299,-0.1359,-0.1409,-0.1455,-0.1513,-0.1519,-0.1606,-0.1697,-0.1655,-0.163,-0.1599,-0.1562,-0.152,-0.1472,-0.1567,-0.1507,-0.1514,-0.1518,-0.1504,-0.1493,-0.1502,-0.1448,-0.145,-0.1451,-0.1452,0,-0.1152,-0.1164,-0.1223,-0.1259,-0.1319,-0.1327,-0.1382,-0.1391,-0.1427,-0.1518,-0.1497,-0.1521,-0.1574,-0.1492,-0.1452,-0.1397,-0.1372,-0.1322,-0.1339,-0.1353,-0.133,-0.1295,-0.1143,0,0,0,0,0,-0.1088,-0.1082,-0.1111,-0.1145,-0.1199,-0.1229,-0.1308,-0.1361,-0.1453,-0.1379,-0.1434,-0.1394,-0.1339,-0.1357,-0.1268,-0.1389,-0.1379,-0.1281,-0.1332,-0.1378,-0.1392,-0.1378,0,0,0,0,0,0,-0.1042,-0.1066,-0.107,-0.1033,-0.103,-0.1073,-0.1116,-0.1184,-0.1153,-0.1251,-0.1224,-0.13,-0.1264,-0.1355,-0.1234,-0.1238,-0.1239,-0.1308,-0.1304,-0.1369,-0.1383,-0.1394,-0.1385,0,0,0,0,0]},{"header":{"parameterUnit":"m.s-1","parameterCategory":2,"la1":30.2991,"la2":30.254,"lo1":-89.0895,"lo2":-89.0444,"dy":0.0017,"dx":0.0017,"nx":28,"ny":28,"refTime":"2024-10-07T03:00:00:Z","depth":"4","parameterNumber":3,"parameterNumberName":"V-component_of_CURRENTS"},"data":[0,0,0,0,0,0,0,0,0,0,0,0,0,0,0,0,0,0,0,0,0,0,0,0,0,0,0,0,0,0,0,0,0,0,0,0,0,0,0,0,0,0,0,0,0,0,0,0,0,0,0,0,0,0,0,0,0,0,-0.0178,-0.0178,0,-0.0143,-0.0143,-0.0142,-0.012,-0.012,-0.012,-0.0119,-0.0062,-0.006,-0.0059,0,0,0,0,0,0,0,0,0,0,0,0,0,-0.0193,-0.0193,-0.0178,-0.0178,-0.0177,-0.0143,-0.0142,-0.0142,-0.012,-0.012,-0.012,-0.0119,-0.0062,-0.0061,-0.0059,0,0,0,0,0,0,0,0,0,0,0,0,0,-0.0175,-0.0193,-0.0178,-0.0162,-0.0161,-0.0143,-0.0142,-0.0142,-0.012,-0.012,-0.012,-0.0119,-0.0063,-0.0061,-0.0059,-0.0049,0,0,-0.0052,-0.0051,0,0,0,0,0,0,0,0,-0.0176,-0.0174,-0.0165,-0.0163,-0.0161,-0.0136,-0.0127,-0.011,-0.012,-0.0135,-0.0119,-0.0119,-0.0085,-0.0081,-0.0075,-0.0046,-0.0043,-0.0052,-0.0051,-0.005,-0.0049,0,0,0,0,0,0,0,-0.0177,-0.0175,-0.0164,-0.0165,-0.0162,-0.0146,-0.0143,-0.0123,-0.0111,-0.0134,-0.0132,-0.0129,-0.0084,-0.0077,-0.0073,-0.0042,-0.0052,-0.005,-0.0049,-0.0048,-0.0003,-0.0003,0,0,0,0,0,0,-0.0184,-0.0177,-0.0165,-0.0163,-0.0169,-0.0146,-0.0143,-0.0144,-0.0111,-0.0106,-0.0129,-0.0128,-0.008,-0.0075,-0.0071,-0.0057,-0.005,-0.0048,-0.0046,-0.0002,-0.0003,-0.0003,0,0,0,0,0,0,-0.0185,-0.0184,-0.0167,-0.0169,-0.0166,-0.0146,-0.0147,-0.0143,-0.0139,-0.0108,-0.0102,-0.0129,-0.008,-0.0074,-0.0054,-0.0055,-0.0047,-0.0045,-0.0002,-0.0003,-0.0003,-0.003,0,0,0,0,0,0,-0.0185,-0.0184,-0.019,-0.017,-0.0166,-0.0161,-0.0147,-0.0143,-0.0137,-0.0136,-0.0106,-0.01,-0.008,-0.0057,-0.0052,-0.0052,-0.0043,-0.0002,-0.0002,-0.0003,-0.0029,-0.0031,-0.0033,0,0,0,0,0,-0.0186,-0.0194,-0.019,-0.0189,-0.0174,-0.0161,-0.0157,-0.0142,-0.0138,-0.0137,-0.0116,-0.0101,-0.0055,-0.0056,-0.0049,-0.0048,-0.0002,-0.0002,-0.0003,-0.0028,-0.0031,-0.0033,0,0,0,0,0,0,-0.0202,-0.0192,-0.0188,-0.0192,-0.018,-0.0157,-0.0157,-0.0147,-0.013,-0.013,-0.01,-0.0093,-0.0077,-0.006,-0.0062,-0.0036,-0.0027,-0.0026,-0.0049,-0.0051,-0.0053,-0.006,-0.0041,0,0,0,0,0,-0.0209,-0.0214,-0.0198,-0.0202,-0.0198,-0.0179,-0.0173,-0.0164,-0.0145,-0.0138,-0.0116,-0.0094,-0.0073,-0.006,-0.0041,-0.0025,-0.0003,-0.0021,-0.0023,-0.0025,-0.0027,0.001,0.0011,-0.0003,-0.0003,-0.0003,0,0,-0.0216,-0.0212,-0.0214,-0.0206,-0.0196,-0.0194,-0.0176,-0.0171,-0.0166,-0.0134,-0.0122,-0.0101,-0.0071,-0.0054,-0.0045,-0.0039,-0.001,-0.0025,-0.0027,-0.0028,0.001,0.0012,0.0013,-0.0004,-0.0003,-0.0003,0,0,-0.0233,-0.023,-0.024,-0.0232,-0.0222,-0.0209,-0.021,-0.019,-0.018,-0.0165,-0.0142,-0.0119,-0.0091,-0.0065,-0.0049,-0.005,-0.0024,-0.0048,-0.0059,-0.0024,-0.0022,-0.002,0.0004,0.0009,-0.0046,-0.0046,-0.0046,0,-0.0243,-0.0253,-0.024,-0.0245,-0.0242,-0.0218,-0.0224,-0.0208,-0.0184,-0.0173,-0.0167,-0.0119,-0.0094,-0.0064,-0.0066,-0.0053,-0.0034,-0.0053,-0.0026,-0.0024,-0.0021,0.0004,0.0009,-0.0047,-0.0047,-0.0047,-0.0047,0,-0.0264,-0.0272,-0.0277,-0.0277,-0.027,-0.0272,-0.0249,-0.0239,-0.0224,-0.0204,-0.0177,-0.014,-0.0111,-0.0099,-0.0082,-0.0056,-0.0048,-0.0035,-0.002,-0.0021,0.0005,0.001,-0.0049,-0.0049,-0.0048,-0.0048,0,0,-0.0287,-0.0293,-0.0295,-0.0304,-0.0289,-0.0287,-0.0276,-0.0257,-0.025,-0.0219,-0.0203,-0.0163,-0.0143,-0.0124,-0.0095,-0.0063,-0.0031,-0.0047,-0.0044,-0.0024,0.0039,0.0042,0.0048,-0.0013,-0.0012,-0.0011,0.005,0,-0.031,-0.0334,-0.0324,-0.0341,-0.035,-0.0325,-0.0317,-0.0295,-0.0268,-0.0245,-0.0198,-0.0174,-0.0151,-0.0139,-0.0102,-0.0049,-0.0017,-0.005,0.0038,0.0041,0.0043,0.0055,-0.0008,0.0054,0.0055,0.0056,0.0057,0,-0.0333,-0.0348,-0.0374,-0.0379,-0.038,-0.0384,-0.0367,-0.0356,-0.031,-0.0288,-0.0249,-0.0211,-0.016,-0.0142,-0.005,-0.0073,-0.0024,0.002,0.0023,0.0039,0.0054,0.0057,0.0068,0.0067,0.0066,0.0065,0.0065,0,-0.0363,-0.038,-0.0406,-0.0408,-0.0408,-0.0413,-0.041,-0.0375,-0.0365,-0.0316,-0.03,-0.0232,-0.02,-0.0126,-0.0037,-0.0044,0.0068,0.0072,0.0121,0.0122,0.0113,0.0111,0.0137,0.0137,0.0137,0.0136,0.0136,0,-0.0388,-0.0409,-0.0428,-0.0443,-0.0472,-0.0453,-0.0467,-0.0446,-0.0414,-0.0401,-0.0331,-0.0298,-0.0195,-0.0116,-0.0039,0.006,0.0069,0.0121,0.0141,0.0099,0.0095,0.0117,0.0114,0.0139,0.0138,0.0138,0.0137,0,-0.0414,-0.0426,-0.0461,-0.048,-0.049,-0.0511,-0.0519,-0.052,-0.0482,-0.0461,-0.0447,-0.0348,-0.0241,-0.013,-0.0001,0.0053,0.0152,0.0185,0.0129,0.0145,0.0179,0.0174,0.0238,0.0239,0.0239,0.024,0.024,0,-0.0428,-0.0451,-0.0499,-0.0528,-0.0543,-0.0572,-0.0588,-0.0563,-0.0556,-0.0486,-0.0473,-0.0367,-0.0291,-0.0099,0.001,0.0163,0.0181,0.0222,0.0201,0.0178,0.0191,0.0185,0.0179,0.0241,0.0241,0.0242,0.0242,0,-0.0455,-0.0478,-0.0509,-0.0573,-0.0608,-0.0638,-0.0654,-0.0653,-0.061,-0.058,-0.0478,-0.0367,-0.0243,-0.0096,0.0027,0.0133,0.0191,0.0228,0.0227,0.0208,0.0183,0.0194,0.0187,0.0244,0.0243,0.0243,0.0243,0,-0.0475,-0.0508,-0.0556,-0.0606,-0.0657,-0.0683,-0.069,-0.0662,-0.0642,-0.0554,-0.0523,-0.0371,-0.0283,-0.0111,0.0003,0.0111,0.0128,0.0147,0.015,0.0149,0.0105,0.006,0.0103,0,0,0,0,0,-0.0487,-0.0525,-0.0582,-0.0635,-0.0685,-0.0707,-0.0719,-0.0711,-0.0672,-0.0604,-0.0557,-0.0432,-0.0238,-0.0147,-0.0039,-0.0008,0.0128,0.0119,0.0146,0.0254,0.0252,0.0216,0,0,0,0,0,0,-0.0496,-0.0552,-0.0582,-0.0644,-0.0682,-0.0725,-0.0732,-0.0708,-0.0656,-0.0601,-0.0491,-0.042,-0.0229,-0.0298,-0.004,-0.0007,0.0021,0.0215,0.0217,0.0256,0.0254,0.0252,0.0214,0,0,0,0,0]}]]